User: anonymous   Login
Location: Laterina
(43.5167°N, 11.7167°E)
Time: 21:38:09
(UTC+00:00)
Language:

Cosmos 2151 Rocket - Orbit

View from above orbital plane
View from above orbital plane
View from above satellite
View from above satellite

Ground track
Ground track

The orbit data is extracted from the following two-line orbital elements,

1 21423U 91042B   21127.89365294  .00000064  00000-0  54390-5 0  9993
2 21423  82.4945  73.6712 0016057 277.2404  82.6984 14.79826170591644
Epoch (UTC): 07 May 2021 21:26:51
Eccentricity: 0.0016057
inclination: 82.4945°
perigee height: 618 km
apogee height: 641 km
right ascension of ascending node: 73.6712°
argument of perigee: 277.2404°
revolutions per day: 14.79826170
mean anomaly at epoch: 82.6984°
orbit number at epoch: 59164

The dashed part of the orbit path shows where the satellite is in the earth's shadow,  

DLR